Weather History for KBUF - January, 2013

Change the Weather History Date:

Friday, January 18, 2013

  Actual Average Record
Temperature  
Mean Temperature 24 °F 24 °F  
Max Temperature 33 °F 31 °F 62 °F (1929)
Min Temperature 14 °F 18 °F -6 °F (1977)
Degree Days  
Heating Degree Days 41 41  
Month to date heating degree days 570 716  
Since 1 July heating degree days 2731 3131  
Cooling Degree Days 0 0  
Month to date cooling degree days 0 0  
Year to date cooling degree days 0 0  
Moisture  
Dew Point 11 °F    
Average Humidity 69    
Maximum Humidity 88    
Minimum Humidity 50    
Precipitation  
Precipitation 0.01 in 0.11 in 1.09 in (1929)
Month to date precipitation 0.64 1.96  
Year to date precipitation 0.64 1.96  
Snow  
Snow 0.20 in 0.80 in 5.50 in (1958)
Month to date snowfall 2.3 15.6  
Since 1 July snowfall 24.3 51.8  
Snow Depth 1.00 in    
Sea Level Pressure  
Sea Level Pressure 30.29 in    
Wind  
Wind Speed 12 mph (WSW)    
Max Wind Speed 25 mph    
Max Gust Speed 31 mph    
Visibility 8 miles    
Events Snow    
T = Trace of Precipitation, MM = Missing Value Source: NWS Daily Summary

Daily Weather History Graph

Daily Weather History Graph

Search for Another Location

Airport or City:

Trip Planner

Search our weather history database for the weather conditions in past years. The results will help you decide how hot, cold, wet, or windy it might be!

Date:

Astronomy

Jan. 18, 2013 Rise Set
Actual Time 7:41 AM EST 5:09 PM EST
Civil Twilight 7:10 AM EST 5:41 PM EST
Nautical Twilight 6:35 AM EST 6:15 PM EST
Astronomical Twilight 6:01 AM EST 6:49 PM EST
Moon 11:06 AM EST (1/18) 12:10 AM EST (1/18)
Length of Visible Light 10h 30m
Length of Day
9h 28m
Waxing Crescent, 47% of the Moon is Illuminated
Jan 18
Waxing Crescent
Jan 18
First Quarter
Jan 26
Full
Feb 3
Last Quarter
Feb 10
New

Hourly Weather History & Observations

Time (EST) Temp. Windchill Dew Point Humidity Pressure Visibility Wind Dir Wind Speed Gust Speed Precip Events Conditions
12:54 AM 16.0 °F 10.4 °F 10.9 °F 81% 30.22 in 7.0 mi NE 3.5 mph - 0.01 in Snow Light Snow
1:50 AM 15.8 °F 10.2 °F 12.2 °F 86% 30.21 in 2.5 mi North 3.5 mph - 0.00 in Snow Light Snow
1:54 AM 16.0 °F 10.4 °F 12.0 °F 84% 30.25 in 2.5 mi North 3.5 mph - 0.00 in Snow Light Snow
2:28 AM 14.0 °F 8.2 °F 10.4 °F 86% 30.23 in 5.0 mi NNW 3.5 mph - 0.00 in Snow Light Snow
2:54 AM 15.1 °F 6.4 °F 12.0 °F 88% 30.29 in 5.0 mi NW 5.8 mph - 0.00 in Snow Light Snow
3:12 AM 15.8 °F 8.6 °F 12.2 °F 86% 30.26 in 1.5 mi NW 4.6 mph - 0.00 in Snow Light Snow
3:45 AM 15.8 °F 10.2 °F 12.2 °F 86% 30.27 in 3.0 mi NW 3.5 mph - 0.00 in Snow Light Snow
3:54 AM 15.1 °F - 10.9 °F 84% 30.31 in 8.0 mi Calm Calm - 0.00 in Snow Light Snow
4:31 AM 15.8 °F 7.2 °F 12.2 °F 86% 30.28 in 10.0 mi SW 5.8 mph - 0.00 in Snow Light Snow
4:54 AM 16.0 °F 8.8 °F 12.0 °F 84% 30.33 in 5.0 mi WSW 4.6 mph - 0.00 in Snow Light Snow
5:54 AM 16.0 °F 2.3 °F 9.0 °F 74% 30.37 in 10.0 mi West 12.7 mph 20.7 mph 0.00 in Snow Light Snow
6:54 AM 15.1 °F 1.8 °F 8.1 °F 74% 30.40 in 10.0 mi West 11.5 mph 19.6 mph 0.00 in Snow Light Snow
7:54 AM 15.1 °F 4.2 °F 6.1 °F 68% 30.42 in 10.0 mi West 8.1 mph - 0.00 in   Scattered Clouds
8:54 AM 16.0 °F 2.3 °F 8.1 °F 71% 30.44 in 10.0 mi West 12.7 mph - N/A   Scattered Clouds
9:54 AM 19.0 °F 6.8 °F 8.1 °F 62% 30.45 in 10.0 mi West 11.5 mph - N/A   Scattered Clouds
10:54 AM 19.9 °F 6.7 °F 8.1 °F 60% 30.45 in 10.0 mi West 13.8 mph - N/A   Scattered Clouds
11:54 AM 21.0 °F 9.9 °F 7.0 °F 55% 30.42 in 10.0 mi West 10.4 mph - N/A   Mostly Cloudy
12:54 PM 21.0 °F 10.6 °F 9.0 °F 60% 30.40 in 10.0 mi WSW 9.2 mph - N/A   Mostly Cloudy
1:54 PM 23.0 °F 9.2 °F 10.9 °F 60% 30.37 in 10.0 mi WSW 17.3 mph 25.3 mph N/A   Mostly Cloudy
2:54 PM 24.1 °F 10.6 °F 12.9 °F 62% 30.34 in 10.0 mi SW 17.3 mph 26.5 mph N/A   Mostly Cloudy
3:54 PM 26.1 °F 14.0 °F 15.1 °F 63% 30.30 in 10.0 mi SW 15.0 mph 26.5 mph N/A   Mostly Cloudy
4:23 PM 24.8 °F 12.4 °F 15.8 °F 69% 30.25 in 10.0 mi SSW 15.0 mph - N/A   Overcast
4:54 PM 26.1 °F 13.6 °F 15.1 °F 63% 30.27 in 10.0 mi South 16.1 mph - N/A   Mostly Cloudy
5:54 PM 25.0 °F 14.2 °F 12.0 °F 58% 30.26 in 10.0 mi South 11.5 mph - N/A   Mostly Cloudy
6:54 PM 25.0 °F 14.2 °F 12.0 °F 58% 30.22 in 10.0 mi South 11.5 mph - N/A   Mostly Cloudy
7:54 PM 27.0 °F 14.7 °F 12.9 °F 56% 30.19 in 10.0 mi SSW 16.1 mph 24.2 mph N/A   Scattered Clouds
8:54 PM 28.0 °F 14.9 °F 12.9 °F 53% 30.13 in 10.0 mi SSW 19.6 mph 28.8 mph N/A   Mostly Cloudy
9:54 PM 30.0 °F 16.3 °F 15.1 °F 54% 30.09 in 10.0 mi SSW 24.2 mph - N/A   Mostly Cloudy
10:54 PM 30.9 °F 18.1 °F 16.0 °F 54% 30.08 in 10.0 mi SSW 21.9 mph 26.5 mph N/A   Overcast
11:54 PM 33.1 °F 21.5 °F 16.0 °F 50% 30.03 in 10.0 mi SSW 19.6 mph - N/A   Overcast